AXM110 WMKK-WBGG

Flight info

Callsign AXM110
Flight time N/A
Altitude 39000
Route KIMAT2D KIMAT Y344 VPK M761 ESBAL ESBAL1G
Aircraft A20N/M-SDE2E3FGHIRWXY/LB1

Departure

Time N/A
Airport Kuala Lumpur International Airport (WMKK)

Arrival

Time 2026-04-30 08:54
Airport Kuching International Airport (WBGG)
Time Latitude Longitude Altitude Speed Heading
2026-04-30 08:23 1.69747 109.53727 38834 ft 429 kts 95°
2026-04-30 08:23 1.69755 109.56697 38836 ft 428 kts 82°
2026-04-30 08:24 1.70774 109.60753 38839 ft 429 kts 73°
2026-04-30 08:24 1.72675 109.66419 38837 ft 431 kts 72°
2026-04-30 08:25 1.74617 109.72099 38835 ft 432 kts 72°
2026-04-30 08:25 1.76557 109.77785 38840 ft 433 kts 72°
2026-04-30 08:26 1.78497 109.83477 38841 ft 433 kts 72°
2026-04-30 08:26 1.80441 109.89187 38840 ft 435 kts 72°
2026-04-30 08:27 1.82381 109.94884 38839 ft 436 kts 72°
2026-04-30 08:27 1.84331 110.00610 38620 ft 435 kts 72°
2026-04-30 08:27 1.85307 110.03478 38149 ft 436 kts 72°
2026-04-30 08:28 1.86284 110.06348 37631 ft 437 kts 72°
2026-04-30 08:28 1.87264 110.09226 37126 ft 438 kts 72°
2026-04-30 08:28 1.88248 110.12116 36624 ft 439 kts 72°
2026-04-30 08:28 1.89231 110.15006 36141 ft 440 kts 72°
2026-04-30 08:29 1.90218 110.17905 35674 ft 441 kts 72°
2026-04-30 08:29 1.91206 110.20809 35200 ft 442 kts 72°
2026-04-30 08:29 1.92199 110.23725 34747 ft 443 kts 72°
2026-04-30 08:29 1.93177 110.26601 34302 ft 444 kts 72°
2026-04-30 08:30 1.94172 110.29524 33854 ft 445 kts 72°
2026-04-30 08:30 1.95171 110.32459 33359 ft 446 kts 72°
2026-04-30 08:30 1.96169 110.35393 32857 ft 445 kts 72°
2026-04-30 08:30 1.97164 110.38319 32365 ft 442 kts 72°
2026-04-30 08:31 1.98148 110.41210 31825 ft 440 kts 72°
2026-04-30 08:31 1.99131 110.44101 31261 ft 438 kts 72°
2026-04-30 08:31 2.00110 110.46978 30742 ft 435 kts 72°
2026-04-30 08:31 2.01082 110.49837 30244 ft 432 kts 72°
2026-04-30 08:32 2.02044 110.52666 29727 ft 429 kts 72°
2026-04-30 08:32 2.03002 110.55483 29147 ft 426 kts 72°
2026-04-30 08:32 2.03951 110.58274 28596 ft 423 kts 72°
2026-04-30 08:32 2.04894 110.61047 28028 ft 420 kts 72°
2026-04-30 08:33 2.05831 110.63804 27483 ft 417 kts 72°
2026-04-30 08:33 2.06760 110.66536 26949 ft 414 kts 72°
2026-04-30 08:33 2.07671 110.69217 26443 ft 411 kts 72°
2026-04-30 08:33 2.08584 110.71903 25952 ft 408 kts 72°
2026-04-30 08:34 2.09495 110.74584 25463 ft 404 kts 72°
2026-04-30 08:34 2.10395 110.77232 24991 ft 401 kts 72°
2026-04-30 08:34 2.11290 110.79863 24530 ft 398 kts 72°
2026-04-30 08:34 2.12177 110.82473 24094 ft 395 kts 72°
2026-04-30 08:35 2.13056 110.85059 23657 ft 391 kts 72°
2026-04-30 08:35 2.13927 110.87624 23195 ft 388 kts 72°
2026-04-30 08:35 2.14792 110.90169 22625 ft 386 kts 72°
2026-04-30 08:35 2.15658 110.92719 21955 ft 388 kts 72°
2026-04-30 08:36 2.16521 110.95258 21292 ft 383 kts 72°
2026-04-30 08:36 2.17358 110.97721 20648 ft 374 kts 72°
2026-04-30 08:36 2.18185 111.00157 20105 ft 366 kts 72°
2026-04-30 08:36 2.18806 111.02633 19645 ft 362 kts 84°
2026-04-30 08:37 2.18663 111.05081 19184 ft 358 kts 104°
2026-04-30 08:37 2.17635 111.07330 18734 ft 357 kts 124°
2026-04-30 08:37 2.15852 111.09041 18281 ft 358 kts 145°
2026-04-30 08:37 2.13551 111.09984 17814 ft 361 kts 167°
2026-04-30 08:38 2.11036 111.10028 17149 ft 368 kts 188°
2026-04-30 08:38 2.08651 111.09081 16619 ft 372 kts 211°
2026-04-30 08:38 2.06744 111.07351 16120 ft 372 kts 228°
2026-04-30 08:38 2.05132 111.05335 15564 ft 372 kts 231°
2026-04-30 08:39 2.03582 111.03286 14994 ft 365 kts 232°
2026-04-30 08:39 2.02062 111.01276 14444 ft 360 kts 232°
2026-04-30 08:39 2.00554 110.99299 13906 ft 358 kts 231°
2026-04-30 08:39 1.99035 110.97321 13337 ft 358 kts 231°
2026-04-30 08:40 1.97514 110.95349 12737 ft 358 kts 231°
2026-04-30 08:40 1.95993 110.93382 12142 ft 357 kts 231°
2026-04-30 08:40 1.94473 110.91417 11567 ft 356 kts 231°
2026-04-30 08:40 1.92966 110.89472 10930 ft 351 kts 232°
2026-04-30 08:41 1.91491 110.87567 10300 ft 343 kts 232°
2026-04-30 08:41 1.90047 110.85702 9778 ft 333 kts 232°
2026-04-30 08:41 1.88657 110.83910 9530 ft 330 kts 232°
2026-04-30 08:41 1.87235 110.82074 9485 ft 330 kts 232°
2026-04-30 08:42 1.85798 110.80289 9328 ft 329 kts 226°
2026-04-30 08:42 1.84046 110.78842 8828 ft 327 kts 213°
2026-04-30 08:42 1.82175 110.77640 8244 ft 320 kts 211°
2026-04-30 08:42 1.80305 110.76495 7671 ft 312 kts 211°
2026-04-30 08:43 1.78478 110.75378 7114 ft 304 kts 211°
2026-04-30 08:43 1.76709 110.74290 6692 ft 293 kts 211°
2026-04-30 08:43 1.75003 110.73236 6267 ft 284 kts 211°
2026-04-30 08:43 1.73349 110.72211 5792 ft 277 kts 211°
2026-04-30 08:44 1.71720 110.71200 5263 ft 274 kts 212°
2026-04-30 08:44 1.70111 110.70200 4731 ft 271 kts 212°
2026-04-30 08:44 1.68528 110.69215 4345 ft 263 kts 212°
2026-04-30 08:44 1.67024 110.68280 4182 ft 246 kts 212°
2026-04-30 08:45 1.65609 110.67399 3969 ft 234 kts 212°
2026-04-30 08:45 1.64247 110.66551 3693 ft 228 kts 212°
2026-04-30 08:45 1.62936 110.65735 3542 ft 216 kts 212°
2026-04-30 08:45 1.61685 110.64956 3341 ft 208 kts 212°
2026-04-30 08:46 1.60545 110.64105 3155 ft 200 kts 225°
2026-04-30 08:46 1.59729 110.63019 2942 ft 192 kts 242°
2026-04-30 08:46 1.59193 110.61840 2739 ft 185 kts 249°
2026-04-30 08:46 1.58731 110.60664 2531 ft 178 kts 250°
2026-04-30 08:47 1.58288 110.59529 2331 ft 172 kts 250°
2026-04-30 08:47 1.57871 110.58463 2263 ft 158 kts 250°
2026-04-30 08:47 1.57473 110.57447 2281 ft 157 kts 250°
2026-04-30 08:47 1.57076 110.56438 2291 ft 156 kts 250°
2026-04-30 08:48 1.56675 110.55422 2268 ft 157 kts 250°
2026-04-30 08:48 1.56273 110.54404 2276 ft 157 kts 250°
2026-04-30 08:48 1.55955 110.53601 2296 ft 156 kts 250°
2026-04-30 08:49 1.55865 110.53374 2293 ft 156 kts 250°
2026-04-30 08:49 1.55467 110.52369 2284 ft 156 kts 250°
2026-04-30 08:49 1.55069 110.51360 2284 ft 156 kts 250°
2026-04-30 08:50 1.54671 110.50351 2282 ft 156 kts 250°
2026-04-30 08:50 1.54275 110.49348 2299 ft 150 kts 250°
2026-04-30 08:50 1.53909 110.48418 2276 ft 143 kts 250°
2026-04-30 08:50 1.53541 110.47484 2239 ft 143 kts 250°
2026-04-30 08:51 1.53177 110.46562 2067 ft 142 kts 250°
2026-04-30 08:51 1.52820 110.45656 1887 ft 142 kts 250°
2026-04-30 08:51 1.52459 110.44742 1698 ft 141 kts 250°
2026-04-30 08:51 1.52100 110.43830 1520 ft 141 kts 250°
2026-04-30 08:52 1.51741 110.42921 1344 ft 141 kts 251°
2026-04-30 08:52 1.51384 110.42015 1156 ft 140 kts 250°
2026-04-30 08:52 1.51027 110.41110 977 ft 140 kts 250°
2026-04-30 08:52 1.50672 110.40208 807 ft 139 kts 249°
2026-04-30 08:53 1.50317 110.39307 647 ft 140 kts 249°
2026-04-30 08:53 1.49970 110.38405 421 ft 138 kts 249°
2026-04-30 08:53 1.49630 110.37507 257 ft 138 kts 249°
2026-04-30 08:53 1.49280 110.36617 65 ft 136 kts 247°
2026-04-30 08:54 1.48967 110.35857 71 ft 93 kts 247°
2026-04-30 08:54 1.48787 110.35416 68 ft 53 kts 248°
2026-04-30 08:54 1.48837 110.35261 71 ft 20 kts 337°
2026-04-30 08:54 1.48880 110.35197 77 ft 6 kts 257°
2026-04-30 08:55 1.48859 110.35147 68 ft 13 kts 248°
2026-04-30 08:55 1.48824 110.35059 75 ft 13 kts 250°
2026-04-30 08:55 1.48788 110.34960 81 ft 18 kts 249°
2026-04-30 08:55 1.48735 110.34834 84 ft 22 kts 248°
2026-04-30 08:56 1.48674 110.34684 88 ft 25 kts 249°
2026-04-30 08:56 1.48659 110.34592 85 ft 4 kts 306°
2026-04-30 08:56 1.48695 110.34547 87 ft 7 kts 272°
2026-04-30 08:56 1.48679 110.34491 87 ft 10 kts 245°
2026-04-30 08:57 1.48666 110.34441 87 ft 2 kts 239°
2026-04-30 08:57 1.48660 110.34409 90 ft 3 kts 311°
2026-04-30 08:57 1.48680 110.34398 89 ft 4 kts 333°
2026-04-30 08:57 1.48712 110.34385 90 ft 5 kts 340°
2026-04-30 08:58 1.48719 110.34383 89 ft 0 kts 340°
2026-04-30 08:59 1.58503 110.60079 2425 ft 175 kts 250°
2026-04-30 08:59 1.55020 110.51234 2285 ft 156 kts 250°
2026-04-30 09:00 1.51022 110.41098 975 ft 140 kts 250°
2026-04-30 09:00 1.50669 110.40203 808 ft 139 kts 249°
2026-04-30 09:00 1.50335 110.39352 659 ft 140 kts 249°
2026-04-30 09:00 1.50116 110.38784 491 ft 138 kts 249°
2026-04-30 09:01 1.49776 110.37891 337 ft 139 kts 249°
2026-04-30 09:01 1.49434 110.36994 145 ft 137 kts 248°
2026-04-30 09:01 1.49087 110.36143 62 ft 115 kts 248°
2026-04-30 09:01 1.53220 110.46668 2088 ft 142 kts 250°
2026-04-30 09:02 1.71025 109.61529 38848 ft 429 kts 72°
2026-04-30 09:02 1.48822 110.35055 78 ft 13 kts 250°
2026-04-30 09:02 1.49784 110.37913 341 ft 139 kts 249°
2026-04-30 09:03 1.49442 110.37016 150 ft 137 kts 249°
2026-04-30 09:03 1.49095 110.36160 64 ft 116 kts 248°
2026-04-30 09:03 1.49020 110.35981 68 ft 103 kts 247°
2026-04-30 09:03 1.48897 110.35688 71 ft 77 kts 248°
2026-04-30 09:04 1.48767 110.35329 76 ft 26 kts 281°
2026-04-30 09:04 1.48872 110.35239 73 ft 17 kts 315°
2026-04-30 09:04 1.48877 110.35188 72 ft 6 kts 251°
2026-04-30 09:04 1.48868 110.35170 77 ft 0 kts 244°